Regional Weather Roundup
Issued by NWS

Home | Current Version | Previous Version | Text Only | Print | Product List | Glossary Off
Versions: 1 2 3 4 5 6 7 8 9 10 11 12 13 14 15 16 17 18 19 20 21 22 23 24 25 26 27 28 29 30 31 32 33 34 35 36 37 38 39 40 41 42 43 44 45 46 47 48 49 50

000
ASUS45 KBOI 012010
RWRID

IDAHO REGIONAL WEATHER ROUNDUP
NATIONAL WEATHER SERVICE BOISE ID
200 PM MDT TUE SEP 01 2015

NOTE: "FAIR" INDICATES FEW OR NO CLOUDS BELOW 12000 FEET
WITH NO SIGNIFICANT WEATHER AND/OR OBSTRUCTIONS TO VISIBILITY

IDZ012-014-012100-
SOUTHWEST IDAHO


CITY           SKY/WX    TMP DP  RH WIND       PRES   REMARKS
BOISE          SUNNY     82  40  22 W6        29.87F
CALDWELL       SUNNY     81  43  26 W3        29.88F
MOUNTAIN HOME  SUNNY     83  38  20 VRB2      29.87F
$$

IDZ016-017-012100-
SOUTHCENTRAL IDAHO


CITY           SKY/WX    TMP DP  RH WIND       PRES   REMARKS
BURLEY         SUNNY     83  29  14 CALM      29.93F
JEROME         SUNNY     83  32  16 CALM      29.94F
TWIN FALLS     SUNNY     85  35  16 N8        29.93F
$$

IDZ019>023-012100-
SOUTHEAST IDAHO


CITY           SKY/WX    TMP DP  RH WIND       PRES   REMARKS
IDAHO FALLS    MOSUNNY   82  34  17 S14       29.98F
POCATELLO      SUNNY     81  36  19 MISG      29.98F
REXBURG        SUNNY     80  33  18 SW12      29.99F
$$

IDZ006-010-011-018-031-032-012100-
CENTRAL IDAHO MOUNTAINS


CITY           SKY/WX    TMP DP  RH WIND       PRES   REMARKS
MCCALL         MOSUNNY   76  37  24 S16G24    29.96F
HAILEY         MOSUNNY   77  43  29 SE15      30.02F
STANLEY          N/A     76  28  17 VRB6      30.05F
SALMON         SUNNY     79  39  24 NW6       29.86F
CHALLIS        SUNNY     81  42  25 NE6       29.93F
$$

IDZ002-004-006-007-026-012100-
NORTHERN IDAHO


CITY           SKY/WX    TMP DP  RH WIND       PRES   REMARKS
LEWISTON       SUNNY     76  43  30 VRB3      29.84F
LOWELL           N/A     78  51  38 CALM      29.82F
COEUR D`ALENE  PTSUNNY   70  45  40 E3        29.87F
MULLAN PASS    SUNNY     58  36  43 SW10G20   29.99F
$$



USA.gov is the U.S. government's official web portal to all federal, state and local government web resources and services.